Pinedale, WY

2:02 PM MDT on September 19, 2017 (GMT -0600)
Wenz

Weather History for KPNA - March, 2013

Change the Weather History Date:

Friday, March 15, 2013

  Actual Average (KBPI) Record (KBPI)
Temperature  
Mean Temperature 38 °F -  
Max Temperature 53 °F 37 °F 63 °F (2015)
Min Temperature 23 °F 14 °F -5 °F (1985)
Degree Days  
Heating Degree Days 27    
Moisture  
Dew Point 24 °F    
Average Humidity 64    
Maximum Humidity 100    
Minimum Humidity 28    
Precipitation  
Precipitation 0.00 in - - ()
Sea Level Pressure  
Sea Level Pressure 30.12 in    
Wind  
Wind Speed 7 mph (WNW)    
Max Wind Speed 21 mph    
Max Gust Speed 26 mph    
Visibility 10 miles    
Events      
Averages and records for this station are not official NWS values.
T = Trace of Precipitation, MM = Missing Value Source: NWS Daily Summary

Daily Weather History Graph

Daily Weather History Graph

Search for Another Location

Airport or City:

Trip Planner

Search our weather history database for the weather conditions in past years. The results will help you decide how hot, cold, wet, or windy it might be!

Date:

Astronomy

Mar. 15, 2013 Rise Set
Actual Time 7:30 AM MDT 7:26 PM MDT
Civil Twilight 7:02 AM MDT 7:54 PM MDT
Nautical Twilight 6:29 AM MDT 8:27 PM MDT
Astronomical Twilight 5:56 AM MDT 9:00 PM MDT
Moon 9:16 AM MDT (3/15) 11:50 PM MDT (3/15)
Length of Visible Light 12h 51m
Length of Day
11h 55m
Waxing Crescent, 16% of the Moon is Illuminated
Mar 15
Waxing Crescent
Mar 19
First Quarter
Mar 27
Full
Apr 2
Last Quarter
Apr 10
New

Hourly Weather History & Observations

Time (MDT) Temp. Windchill Dew Point Humidity Pressure Visibility Wind Dir Wind Speed Gust Speed Precip Events Conditions
12:15 AM 30.2 °F 25.4 °F 28.4 °F 93% 30.22 in 10.0 mi WNW 4.6 mph - N/A   Clear
12:35 AM 30.2 °F 26.7 °F 28.4 °F 93% 30.22 in 10.0 mi West 3.5 mph - N/A   Clear
12:55 AM 30.2 °F 25.4 °F 28.4 °F 93% 30.21 in 10.0 mi NW 4.6 mph - N/A   Clear
1:15 AM 30.2 °F 25.4 °F 28.4 °F 93% 30.21 in 10.0 mi NW 4.6 mph - N/A   Clear
1:35 AM 30.2 °F 24.3 °F 28.4 °F 93% 30.20 in 10.0 mi NW 5.8 mph - N/A   Clear
1:55 AM 28.4 °F 22.2 °F 26.6 °F 93% 30.19 in 10.0 mi NW 5.8 mph - N/A   Clear
2:15 AM 28.4 °F 22.2 °F 26.6 °F 93% 30.19 in 10.0 mi NW 5.8 mph - N/A   Clear
2:35 AM 28.4 °F 22.2 °F 26.6 °F 93% 30.19 in 10.0 mi West 5.8 mph - N/A   Clear
3:15 AM 28.4 °F 22.2 °F 26.6 °F 93% 30.19 in 10.0 mi WNW 5.8 mph - N/A   Clear
3:35 AM 26.6 °F 21.2 °F 24.8 °F 93% 30.18 in 10.0 mi WNW 4.6 mph - N/A   Clear
3:55 AM 28.4 °F 23.3 °F 24.8 °F 86% 30.17 in 10.0 mi WNW 4.6 mph - N/A   Clear
4:15 AM 28.4 °F 22.2 °F 24.8 °F 86% 30.16 in 10.0 mi WNW 5.8 mph - N/A   Clear
4:35 AM 28.4 °F 23.3 °F 24.8 °F 86% 30.15 in 10.0 mi NNW 4.6 mph - N/A   Scattered Clouds
4:55 AM 28.4 °F 22.2 °F 24.8 °F 86% 30.16 in 10.0 mi WNW 5.8 mph - N/A   Scattered Clouds
5:15 AM 26.6 °F 20.0 °F 23.0 °F 86% 30.16 in 10.0 mi WNW 5.8 mph - N/A   Clear
5:35 AM 28.4 °F 23.3 °F 24.8 °F 86% 30.16 in 10.0 mi NNW 4.6 mph - N/A   Clear
5:55 AM 26.6 °F 21.2 °F 23.0 °F 86% 30.16 in 10.0 mi WNW 4.6 mph - N/A   Clear
6:15 AM 24.8 °F 17.9 °F 23.0 °F 93% 30.16 in 10.0 mi West 5.8 mph - N/A   Clear
6:35 AM 26.6 °F 21.2 °F 23.0 °F 86% 30.16 in 10.0 mi WNW 4.6 mph - N/A   Clear
6:55 AM 24.8 °F 17.9 °F 23.0 °F 93% 30.15 in 10.0 mi NW 5.8 mph - N/A   Clear
7:15 AM 23.0 °F 17.0 °F 23.0 °F 100% 30.15 in 10.0 mi WNW 4.6 mph - N/A   Clear
7:35 AM 26.6 °F 19.1 °F 23.0 °F 86% 30.16 in 10.0 mi NNW 6.9 mph - N/A   Clear
7:55 AM 23.0 °F 15.8 °F 23.0 °F 100% 30.16 in 10.0 mi West 5.8 mph - N/A   Clear
8:15 AM 24.8 °F 16.9 °F 23.0 °F 93% 30.16 in 10.0 mi West 6.9 mph - N/A   Clear
8:35 AM 28.4 °F 24.6 °F 26.6 °F 93% 30.16 in 10.0 mi NNW 3.5 mph - N/A   Scattered Clouds
9:55 AM 39.2 °F 37.0 °F 28.4 °F 65% 30.15 in 10.0 mi NW 3.5 mph - N/A   Clear
10:15 AM 42.8 °F 40.1 °F 28.4 °F 57% 30.15 in 10.0 mi NW 4.6 mph - N/A   Clear
10:35 AM 44.6 °F 43.1 °F 28.4 °F 53% 30.15 in 10.0 mi WNW 3.5 mph - N/A   Clear
10:55 AM 48.2 °F - 23.0 °F 37% 30.14 in 10.0 mi Calm Calm - N/A   Clear
11:15 AM 48.2 °F - 23.0 °F 37% 30.14 in 10.0 mi NW 8.1 mph - N/A   Clear
11:35 AM 50.0 °F - 23.0 °F 35% 30.14 in 10.0 mi NW 6.9 mph - N/A   Clear
11:55 AM 50.0 °F - 23.0 °F 35% 30.13 in 10.0 mi WNW 9.2 mph - N/A   Clear
12:15 PM 50.0 °F - 23.0 °F 35% 30.13 in 10.0 mi WNW 4.6 mph - N/A   Clear
12:35 PM 51.8 °F - 23.0 °F 33% 30.12 in 10.0 mi WNW 16.1 mph - N/A   Clear
12:55 PM 51.8 °F - 23.0 °F 33% 30.11 in 10.0 mi WNW 13.8 mph - N/A   Clear
1:15 PM 53.6 °F - 23.0 °F 30% 30.11 in 10.0 mi WNW 12.7 mph 19.6 mph N/A   Clear
1:35 PM 53.6 °F - 23.0 °F 30% 30.10 in 10.0 mi WNW 18.4 mph 21.9 mph N/A   Clear
1:55 PM 53.6 °F - 21.2 °F 28% 30.09 in 10.0 mi WNW 19.6 mph 26.5 mph N/A   Clear
2:15 PM 53.6 °F - 21.2 °F 28% 30.09 in 10.0 mi West 19.6 mph 26.5 mph N/A   Clear
2:35 PM 53.6 °F - 21.2 °F 28% 30.08 in 10.0 mi West 19.6 mph 25.3 mph N/A   Clear
2:55 PM 53.6 °F - 21.2 °F 28% 30.07 in 10.0 mi WNW 17.3 mph 24.2 mph N/A   Clear
3:15 PM 53.6 °F - 21.2 °F 28% 30.07 in 10.0 mi WNW 16.1 mph 24.2 mph N/A   Clear
3:35 PM 53.6 °F - 21.2 °F 28% 30.06 in 10.0 mi WNW 15.0 mph 20.7 mph N/A   Clear
3:55 PM 51.8 °F - 21.2 °F 30% 30.06 in 10.0 mi WNW 10.4 mph 17.3 mph N/A   Clear
4:15 PM 53.6 °F - 21.2 °F 28% 30.05 in 10.0 mi NW 16.1 mph 23.0 mph N/A   Scattered Clouds
4:35 PM 53.6 °F - 23.0 °F 30% 30.05 in 10.0 mi NNW 16.1 mph 24.2 mph N/A   Scattered Clouds
4:55 PM 51.8 °F - 23.0 °F 33% 30.06 in 10.0 mi NW 16.1 mph - N/A   Scattered Clouds
5:15 PM 51.8 °F - 21.2 °F 30% 30.06 in 10.0 mi WNW 20.7 mph - N/A   Clear
5:35 PM 50.0 °F - 21.2 °F 32% 30.06 in 10.0 mi NW 15.0 mph 20.7 mph N/A   Clear
5:55 PM 50.0 °F - 21.2 °F 32% 30.06 in 10.0 mi West 15.0 mph 19.6 mph N/A   Clear
6:15 PM 48.2 °F - 23.0 °F 37% 30.06 in 10.0 mi WNW 16.1 mph - N/A   Scattered Clouds
6:35 PM 46.4 °F 40.1 °F 21.2 °F 37% 30.06 in 10.0 mi West 15.0 mph 21.9 mph N/A   Scattered Clouds
6:55 PM 44.6 °F 38.4 °F 23.0 °F 43% 30.07 in 10.0 mi West 12.7 mph - N/A   Scattered Clouds
7:15 PM 44.6 °F 39.2 °F 23.0 °F 43% 30.07 in 10.0 mi West 10.4 mph 18.4 mph N/A   Clear
7:35 PM 41.0 °F 35.8 °F 26.6 °F 57% 30.08 in 10.0 mi West 8.1 mph - N/A   Clear
7:55 PM 39.2 °F 34.2 °F 24.8 °F 56% 30.08 in 10.0 mi WNW 6.9 mph - N/A   Clear
8:15 PM 35.6 °F 31.7 °F 26.6 °F 70% 30.08 in 10.0 mi WNW 4.6 mph - N/A   Clear
8:35 PM 33.8 °F 27.7 °F 26.6 °F 75% 30.08 in 10.0 mi NNW 6.9 mph - N/A   Clear
8:55 PM 32.0 °F 25.6 °F 26.6 °F 80% 30.08 in 10.0 mi NW 6.9 mph - N/A   Clear
9:15 PM 32.0 °F - 24.8 °F 75% 30.08 in 10.0 mi Calm Calm - N/A   Clear
9:35 PM 32.0 °F 26.4 °F 24.8 °F 75% 30.08 in 10.0 mi WNW 5.8 mph - N/A   Clear
9:55 PM 30.2 °F - 24.8 °F 80% 30.08 in 10.0 mi Calm Calm - N/A   Clear
10:15 PM 32.0 °F - 26.6 °F 80% 30.08 in 10.0 mi Calm Calm - N/A   Mostly Cloudy
10:35 PM 32.0 °F 28.7 °F 24.8 °F 75% 30.08 in 10.0 mi NNW 3.5 mph - N/A   Overcast
10:55 PM 28.4 °F 23.3 °F 24.8 °F 86% 30.08 in 10.0 mi West 4.6 mph - N/A   Mostly Cloudy
11:15 PM 26.6 °F 21.2 °F 24.8 °F 93% 30.07 in 10.0 mi WNW 4.6 mph - N/A   Scattered Clouds
11:35 PM 28.4 °F 23.3 °F 24.8 °F 86% 30.08 in 10.0 mi WNW 4.6 mph - N/A   Clear
11:55 PM 30.2 °F 25.4 °F 24.8 °F 80% 30.07 in 10.0 mi North 4.6 mph - N/A   Clear